User: anonymous   Login
Location: Bu�n Treun
(12.1333°N, 108.3167°E)
Time: 11:43:07
(UTC+00:00)
Language:

NOAA 19 - Orbit

View from above orbital plane
View from above orbital plane
View from above satellite
View from above satellite

Ground track
Ground track

The orbit data is extracted from the following two-line orbital elements,

1 33591U 09005A   21264.17974507  .00000029  00000-0  41162-4 0  9999
2 33591  99.1799 287.2393 0013309 220.9652 139.0520 14.12495981650435
Epoch (UTC): 21 September 2021 04:18:49
Eccentricity: 0.0013309
inclination: 99.1799°
perigee height: 841 km
apogee height: 860 km
right ascension of ascending node: 287.2393°
argument of perigee: 220.9652°
revolutions per day: 14.12495981
mean anomaly at epoch: 139.0520°
orbit number at epoch: 65043

The dashed part of the orbit path shows where the satellite is in the earth's shadow,  

DLR